Weather History for KEXX - December, 2012

Change the Weather History Date:

Tuesday, December 25, 2012

  Actual Average (KINT) Record (KINT)
Temperature  
Mean Temperature 47 °F -  
Max Temperature 53 °F 47 °F 63 °F (1974)
Min Temperature 41 °F 29 °F -3 °F (1983)
Degree Days  
Heating Degree Days 18    
Moisture  
Dew Point 43 °F    
Average Humidity 87    
Maximum Humidity 100    
Minimum Humidity 64    
Precipitation  
Precipitation 0.01 in - - ()
Sea Level Pressure  
Sea Level Pressure 30.03 in    
Wind  
Wind Speed 1 mph (NE)    
Max Wind Speed 9 mph    
Max Gust Speed -    
Visibility 7 miles    
Events      
Averages and records for this station are not official NWS values.
T = Trace of Precipitation, MM = Missing Value Source: NWS Daily Summary

Daily Weather History Graph

Daily Weather History Graph

Search for Another Location

Airport or City:

Trip Planner

Search our weather history database for the weather conditions in past years. The results will help you decide how hot, cold, wet, or windy it might be!

Date:

Astronomy

Dec. 25, 2012 Rise Set
Actual Time 7:29 AM EST 5:13 PM EST
Civil Twilight 7:00 AM EST 5:42 PM EST
Nautical Twilight 6:28 AM EST 6:14 PM EST
Astronomical Twilight 5:57 AM EST 6:45 PM EST
Moon 3:19 PM EST (12/25) 5:01 AM EST (12/25)
Length of Visible Light 10h 41m
Length of Day
9h 44m
Waxing Gibbous, 93% of the Moon is Illuminated
Dec 25
Waxing Gibbous
Dec 28
Full
Jan 4
Last Quarter
Jan 11
New
Jan 18
First Quarter

Hourly Weather History & Observations

Time (EST) Temp. Dew Point Humidity Pressure Visibility Wind Dir Wind Speed Gust Speed Precip Events Conditions
12:15 AM 44.6 °F 44.6 °F 100% 29.93 in 1.5 mi Calm Calm - N/A   Overcast
12:35 AM 44.8 °F 44.8 °F 100% 29.93 in 1.8 mi Calm Calm - N/A   Overcast
12:55 AM 44.8 °F 44.8 °F 100% 29.93 in 2.0 mi Calm Calm - N/A   Overcast
1:15 AM 44.8 °F 44.8 °F 100% 29.94 in 2.5 mi Calm Calm - N/A   Overcast
1:35 AM 44.8 °F 44.8 °F 100% 29.94 in 2.5 mi Calm Calm - N/A   Overcast
1:55 AM 44.6 °F 44.6 °F 100% 29.94 in 3.0 mi Calm Calm - N/A   Overcast
2:15 AM 44.2 °F 44.2 °F 100% 29.94 in 3.0 mi Calm Calm - N/A   Overcast
2:35 AM 43.9 °F 43.9 °F 100% 29.96 in 5.0 mi Calm Calm - N/A   Overcast
2:55 AM 43.7 °F 43.7 °F 100% 29.95 in 5.0 mi Calm Calm - N/A   Overcast
3:15 AM 43.7 °F 43.7 °F 100% 29.96 in 7.0 mi Calm Calm - N/A   Overcast
3:35 AM 43.7 °F 43.7 °F 100% 29.97 in 5.0 mi Calm Calm - N/A   Overcast
3:55 AM 43.7 °F 43.7 °F 100% 29.98 in 5.0 mi Calm Calm - N/A   Overcast
4:15 AM 43.7 °F 43.7 °F 100% 29.97 in 4.0 mi Calm Calm - N/A   Overcast
4:35 AM 43.3 °F 43.3 °F 100% 29.98 in 5.0 mi Calm Calm - N/A   Overcast
4:55 AM 43.3 °F 43.3 °F 100% 29.99 in 3.0 mi Calm Calm - N/A   Overcast
5:15 AM 43.0 °F 43.0 °F 100% 29.99 in 5.0 mi Calm Calm - N/A   Overcast
5:35 AM 43.0 °F 43.0 °F 100% 30.00 in 7.0 mi Calm Calm - N/A   Overcast
5:55 AM 42.8 °F 42.8 °F 100% 30.01 in 5.0 mi Calm Calm - N/A   Overcast
6:15 AM 42.8 °F 42.8 °F 100% 30.02 in 4.0 mi Calm Calm - N/A   Overcast
6:35 AM 42.8 °F 42.8 °F 100% 30.03 in 4.0 mi Calm Calm - N/A   Overcast
6:55 AM 42.3 °F 42.3 °F 100% 30.03 in 5.0 mi Calm Calm - N/A   Overcast
7:15 AM 42.3 °F 42.3 °F 100% 30.04 in 4.0 mi Calm Calm - N/A   Overcast
7:35 AM 42.3 °F 42.3 °F 100% 30.05 in 3.0 mi Calm Calm - N/A   Overcast
7:55 AM 41.9 °F 41.9 °F 100% 30.06 in 3.0 mi Calm Calm - N/A   Overcast
8:15 AM 41.4 °F 41.4 °F 100% 30.07 in 2.5 mi Calm Calm - N/A   Overcast
8:35 AM 41.7 °F 41.7 °F 100% 30.07 in 1.2 mi Calm Calm - N/A   Overcast
8:55 AM 41.5 °F 41.5 °F 100% 30.06 in 1.2 mi Calm Calm - N/A   Overcast
9:15 AM 41.9 °F 41.9 °F 100% 30.07 in 1.8 mi Calm Calm - N/A   Overcast
9:35 AM 41.9 °F 41.9 °F 100% 30.08 in 1.5 mi Calm Calm - N/A   Overcast
9:55 AM 41.9 °F 41.9 °F 100% 30.08 in 2.5 mi Calm Calm - N/A   Overcast
10:15 AM 43.0 °F 43.0 °F 100% 30.09 in 4.0 mi Calm Calm - N/A   Overcast
10:35 AM 44.2 °F 44.2 °F 100% 30.10 in 5.0 mi Calm Calm - N/A   Overcast
10:55 AM 45.3 °F 45.3 °F 100% 30.10 in 7.0 mi Calm Calm - N/A   Mostly Cloudy
11:15 AM 46.6 °F 46.6 °F 100% 30.09 in 7.0 mi Calm Calm - N/A   Scattered Clouds
11:35 AM 48.4 °F 43.7 °F 84% 30.07 in 10.0 mi NE 4.6 mph - N/A   Clear
11:55 AM 49.5 °F 44.1 °F 82% 30.06 in 10.0 mi Calm Calm - N/A   Clear
12:15 PM 50.2 °F 44.2 °F 80% 30.06 in 10.0 mi Calm Calm - N/A   Clear
12:35 PM 51.6 °F 43.9 °F 75% 30.06 in 10.0 mi Calm Calm - N/A   Clear
12:55 PM 52.5 °F 43.2 °F 70% 30.04 in 10.0 mi Calm Calm - N/A   Clear
1:15 PM 53.6 °F 42.1 °F 65% 30.04 in 10.0 mi NE 4.6 mph - N/A   Clear
1:35 PM 53.6 °F 41.5 °F 64% 30.03 in 10.0 mi NNE 4.6 mph - N/A   Clear
1:55 PM 53.4 °F 41.7 °F 65% 30.06 in 10.0 mi Calm Calm - N/A   Clear
2:15 PM 53.4 °F 41.9 °F 65% 30.06 in 10.0 mi Calm Calm - N/A   Scattered Clouds
2:35 PM 53.4 °F 41.7 °F 65% 30.05 in 10.0 mi Calm Calm - N/A   Scattered Clouds
2:55 PM 53.1 °F 41.9 °F 66% 30.06 in 10.0 mi Calm Calm - N/A   Scattered Clouds
3:15 PM 52.9 °F 42.6 °F 68% 30.04 in 10.0 mi Calm Calm - N/A   Scattered Clouds
3:35 PM 52.7 °F 42.4 °F 68% 30.04 in 10.0 mi Calm Calm - N/A   Clear
3:55 PM 52.7 °F 43.2 °F 70% 30.05 in 10.0 mi Calm Calm - N/A   Scattered Clouds
4:15 PM 52.2 °F 42.8 °F 70% 30.04 in 10.0 mi Calm Calm - N/A   Clear
4:35 PM 51.8 °F 42.6 °F 71% 30.04 in 10.0 mi Calm Calm - N/A   Clear
4:55 PM 50.9 °F 42.8 °F 74% 30.03 in 10.0 mi Calm Calm - N/A   Clear
5:15 PM 49.6 °F 42.8 °F 77% 30.03 in 10.0 mi Calm Calm - N/A   Clear
5:35 PM 49.1 °F 42.8 °F 79% 30.03 in 10.0 mi Calm Calm - N/A   Scattered Clouds
5:55 PM 48.6 °F 42.8 °F 80% 30.04 in 10.0 mi Calm Calm - N/A   Mostly Cloudy
6:15 PM 48.9 °F 42.6 °F 79% 30.05 in 10.0 mi Calm Calm - N/A   Overcast
6:35 PM 49.3 °F 42.1 °F 76% 30.06 in 10.0 mi Calm Calm - N/A   Mostly Cloudy
6:55 PM 49.1 °F 42.3 °F 77% 30.07 in 10.0 mi Calm Calm - N/A   Scattered Clouds
7:15 PM 48.7 °F 42.3 °F 78% 30.06 in 10.0 mi NNE 3.5 mph - N/A   Scattered Clouds
7:35 PM 48.2 °F 42.1 °F 79% 30.06 in 10.0 mi Calm Calm - N/A   Scattered Clouds
7:55 PM 48.2 °F 42.1 °F 79% 30.06 in 10.0 mi Calm Calm - N/A   Scattered Clouds
8:15 PM 47.8 °F 42.1 °F 80% 30.05 in 10.0 mi ENE 8.1 mph - N/A   Mostly Cloudy
8:35 PM 48.6 °F 41.7 °F 77% 30.04 in 10.0 mi ENE 6.9 mph - N/A   Scattered Clouds
8:55 PM 48.4 °F 41.9 °F 78% 30.05 in 10.0 mi ENE 4.6 mph - N/A   Clear
9:15 PM 48.4 °F 41.9 °F 78% 30.04 in 10.0 mi ENE 6.9 mph - N/A   Clear
9:35 PM 48.6 °F 41.9 °F 78% 30.05 in 10.0 mi ENE 6.9 mph - N/A   Clear
9:55 PM 48.6 °F 42.1 °F 78% 30.05 in 10.0 mi NE 6.9 mph - N/A   Scattered Clouds
10:15 PM 48.2 °F 42.1 °F 79% 30.03 in 10.0 mi ENE 9.2 mph - N/A   Scattered Clouds
11:15 PM 48.2 °F 42.3 °F 80% 30.01 in 10.0 mi ENE 8.1 mph - N/A   Mostly Cloudy
11:35 PM 48.4 °F 42.6 °F 80% 30.02 in 10.0 mi ENE 8.1 mph - N/A   Mostly Cloudy
11:55 PM 48.4 °F 42.8 °F 81% 30.03 in 10.0 mi ENE 9.2 mph - N/A   Overcast